Hourly Data Report for October 03, 2020

MUSKOKA
ONTARIO
Current Station Operator: NAVCAN

44°58'29.000" N
79°18'12.000" W
281.90 m
6115529
71532
YQA

Download Data

Hourly Data (October 2020)
Hourly Data Report for October 3, 2020
TIME Temp Definition
°C
Dew Point Definition
°C
Rel Hum Definition
%
Wind Dir Definition
10's deg

Wind Spd Definition
km/h
Visibility Definition
km
Stn Press Definition
kPa
Hmdx Definition


Wind Chill Definition


Weather Definition


00:00 2.5 2.3 98 3 5 16.1 98.64     LegendNANA
01:00 3.5 3.2 98 LegendMM 4 16.1 98.66     LegendNANA
02:00 3.3 3.2 99   0 16.1 98.70     LegendNANA
03:00 4.1 4.0 99 17 4 16.1 98.70     LegendNANA
04:00 3.4 3.3 99   0 16.1 98.69     LegendNANA
05:00 1.5 1.4 99   0 3.2 98.72     Fog
06:00 0.7 0.6 99 LegendMM 4 1.2 98.76     Fog
07:00 2.0 2.0 100   0 0.4 98.80     Fog
08:00 3.3 3.3 100 10 5 0.4 98.87     Fog
09:00 5.1 5.0 100 14 5 16.1 98.91     LegendNANA
10:00 6.5 2.8 77 21 8 16.1 98.93     LegendNANA
11:00 6.5 3.9 83 16 5 16.1 98.95     Rain
12:00 6.9 3.5 79 31 11 16.1 98.95     Rain
13:00 7.4 3.2 75 2 5 16.1 98.93     LegendNANA
14:00 7.1 4.2 82 32 15 16.1 98.91     LegendNANA
15:00 7.2 3.3 76 LegendMM 4 16.1 98.86     LegendNANA
16:00 8.2 3.5 72 LegendMM 4 16.1 98.87     LegendNANA
17:00 7.9 3.6 74 LegendMM 4 16.1 98.87     LegendNANA
18:00 6.6 4.9 89 36 4 16.1 98.88     LegendNANA
19:00 5.9 5.2 95   0 16.1 98.92     LegendNANA
20:00 6.3 5.4 94 LegendMM 4 16.1 98.92     LegendNANA
21:00 6.1 5.2 94 30 4 16.1 98.95     Rain
22:00 5.7 5.4 98   0 16.1 98.96     Rain
23:00 5.4 4.7 95 11 4 16.1 98.93     LegendNANA

Notes on Data Quality.

Legend

  • E = Estimated
  • M = Missing
  • NA = Not Available*
  • [empty] = Indicates an unobserved value
Date modified: